Home > Weather > Esch-sur-Alzette > Past weeks

Flag for Luxembourg Weather for the Past 2 Weeks in Esch-sur-Alzette, Luxembourg

Now
36 °F

Partly cloudy.


Feels Like: 25 °F
Forecast: 34 / 40 °F
Wind: 17 mph from Southwest

Location: Luxembourg Airport

Current Time: Feb 10, 2016 at 6:25:37 AM

Latest Report: Feb 10, 2016 at 5:20 AM


Visibility: N/A

Pressure: 29.36 "Hg

Humidity: 87%

Dew point: 32 °F

Location of Esch-sur-AlzetteLocation

Historic Weather in Esch-sur-Alzette — Graph

°F

Esch-sur-Alzette Temperature Yesterday

Maximum temperature yesterday: 48 °F (at 12:50 PM)
Minimum temperature yesterday: 36 °F (at 10:20 PM)
Average temperature yesterday: 42 °F

High & Low Weather Summary for the Past Weeks

 TemperatureHumidityPressure
High52 °F (Jan 27, 2:50 PM)100% (Jan 26, 9:50 AM)30.39 "Hg (Jan 26, 9:50 AM)
Low32 °F (Jan 29, 5:50 AM)57% (Feb 3, 4:20 PM)29.00 "Hg (Feb 9, 2:50 PM)
Average43 °F88%29.99 "Hg
* Reported Jan 26 4:20 AM — Feb 10 4:50 AM, Esch-sur-Alzette, Weather by CustomWeather, © 2016

Note: Actual official high and low records may vary slightly from our data, if they occured in-between our weather recording intervals... More about our weather records

Advertising

Esch-sur-Alzette Weather History for the Previous 24 Hours

 ConditionsComfort  
Time TempWeatherWind HumidityBarometerVisibility
4:50 AM
Wed, Feb 10
36 °FPassing clouds.15 mph87%29.36 "HgN/A
4:20 AM36 °FPartly cloudy.16 mph87%29.36 "HgN/A
3:50 AM36 °FPartly cloudy.15 mph87%29.36 "HgN/A
3:20 AM36 °FPartly cloudy.13 mph87%29.36 "HgN/A
2:50 AM37 °FPartly cloudy.14 mph81%29.36 "HgN/A
2:20 AM37 °FPartly cloudy.13 mph87%29.33 "HgN/A
1:20 AM36 °FPartly cloudy.13 mph93%29.33 "HgN/A
12:50 AM36 °FPassing clouds.9 mph87%29.33 "HgN/A
12:20 AM36 °FPassing clouds.10 mph87%29.33 "HgN/A
11:50 PM
Tue, Feb 9
36 °FPassing clouds.10 mph87%29.33 "HgN/A
11:20 PM37 °FPartly cloudy.14 mph81%29.30 "HgN/A
10:20 PM36 °FPassing clouds.12 mph87%29.27 "HgN/A
9:50 PM37 °FSprinkles. Partly cloudy.15 mph87%29.27 "HgN/A
9:20 PM37 °FPartly cloudy.18 mph87%29.24 "HgN/A
8:50 PM37 °FLight rain. Passing clouds.18 mph87%29.24 "HgN/A
8:20 PM37 °FPassing clouds.14 mph87%29.24 "HgN/A
7:50 PM37 °FPassing clouds.16 mph81%29.21 "HgN/A
7:20 PM37 °FPassing clouds.16 mph81%29.18 "HgN/A
6:50 PM37 °FPassing clouds.18 mph81%29.15 "HgN/A
6:20 PM37 °FSprinkles. Passing clouds.24 mph87%29.12 "HgN/A
5:50 PM39 °FPassing clouds.30 mph81%29.06 "HgN/A
5:20 PM43 °FPartly sunny.33 mph76%29.03 "HgN/A
4:50 PM46 °FPartly sunny.28 mph82%29.00 "HgN/A
4:20 PM46 °FPartly sunny.22 mph87%29.00 "HgN/A
3:50 PM46 °FBroken clouds.20 mph87%29.00 "HgN/A
3:20 PM45 °FRain showers. Broken clouds.23 mph93%29.00 "Hg3 mi
2:50 PM46 °FRain showers. Broken clouds.21 mph87%29.00 "Hg2 mi
2:20 PM46 °FBroken clouds.21 mph82%29.03 "HgN/A
1:50 PM45 °FSprinkles. Broken clouds.30 mph87%29.03 "Hg5 mi
1:20 PM46 °FRain showers. Broken clouds.28 mph87%29.12 "HgN/A
12:50 PM48 °FSprinkles. Broken clouds.26 mph87%29.12 "Hg6 mi
12:20 PM46 °FRain. Broken clouds.16 mph100%29.15 "Hg3 mi
11:20 AM45 °FLight rain. Partly sunny.16 mph93%29.21 "Hg2 mi
10:50 AM43 °FLight rain. Broken clouds.17 mph93%29.24 "Hg2 mi
10:20 AM41 °FRain. Broken clouds.12 mph100%29.27 "Hg1 mi
9:50 AM41 °FRain. Broken clouds.10 mph93%29.33 "Hg2 mi
8:50 AM41 °FRain. Partly sunny.13 mph93%29.42 "Hg2 mi
8:20 AM41 °FRain. Partly sunny.6 mph93%29.45 "Hg6 mi
7:50 AM41 °FPassing clouds.7 mph87%29.47 "HgN/A
6:50 AM41 °FPartly cloudy.12 mph87%29.53 "HgN/A
6:20 AM41 °FPartly cloudy.15 mph87%29.53 "HgN/A
Weather by CustomWeather, © 2016

See weather overviewHow to use our weather pages